Content
SEND FEEDBACK

Daily
Averages
Monthly
Summary
Spain

MADRID, SPAIN


Home > Europe > Spain
Elevation: 581 meters     Latitude: 40 27N     Longitude: 003 33W

WEATHER
 
SELECT A DAY
Number of Records: 305,221;   Date Range: 7/1/96 - 10/21/14
 
SHARE

PRINT THIS DATA

[ ← Previous Day ]
WEATHER ALMANAC - 3 FEBRUARY, 2013
[ Next Day → ]
[ °F ]   °C
Weather ElementAverageHighLow
Temperature6.2 °C10 °C (3:30 pm)3 °C (2:00 am)
Dewpoint-2.9 °C-1 °C (11:00 pm)-4.4 °C (1:00 pm)
Humidity52.3 %65 % (2:00 am)27 % (1:00 pm)
Barometer1026.8 hPa1030.1 hPa (11:30 pm)1023 hPa (4:30 am)
Wind Speed24 km/h38.9 km/h (7:00 am)
Wind Gust57.5 km/h (7:00 am)
Weather ElementAverage
Visibility12.7 km
Wind DirectionWSW (254.1 °)

Weather ElementTotal
Precipitation---
Heating Degree Days11.8 (Base 18.3)
Averaged from 49 records on 3 February, 2013
WEATHER CONDITIONS BREAKOUT
WIND DIRECTION BREAKOUT
WEATHER BY HOUR - 3 FEBRUARY, 2013
[ °F ]   °C
Local TimeTemperatureDewpointHumidityBarometerVisibilityWind DirectionWind SpeedGust SpeedPrecipitationEventsConditions
12:30 AM4 °C-3 °C61 %1024 hPa10 kmNNW (340°)14.8 km/hPartly Cloudy
1:00 AM4.4 °C-3.9 °C43 %1026.8 hPa30.6 kmNorth (350°)22.2 km/hScattered Clouds
1:00 AM4 °C-3 °C61 %1024 hPa10 kmNorth (360°)22.2 km/hPartly Cloudy
1:30 AM4 °C-3 °C61 %1024 hPa10 kmNorth (10°)14.8 km/hPartly Cloudy
2:00 AM3 °C-3 °C65 %1024 hPa10 kmNNW (340°)13 km/hPartly Cloudy
2:30 AM4 °C-2 °C65 %1024 hPa10 kmNorth (350°)18.5 km/hPartly Cloudy
3:00 AM5 °C-3 °C57 %1025.1 hPa10 kmNorth (350°)24.1 km/hPartly Cloudy
3:30 AM5 °C-3 °C57 %1024 hPa10 kmNorth (350°)29.6 km/hPartly Cloudy
4:00 AM4 °C-3 °C61 %1024 hPa10 kmNorth (350°)25.9 km/hPartly Cloudy
4:30 AM5 °C-3 °C57 %1023 hPa10 kmNorth (360°)25.9 km/hPartly Cloudy
5:00 AM5 °C-3 °C57 %1024 hPa10 kmNorth (10°)29.6 km/hPartly Cloudy
5:30 AM5 °C-3 °C57 %1024 hPa10 kmNorth (10°)31.5 km/hPartly Cloudy
6:00 AM5 °C-3 °C57 %1024 hPa10 kmNorth (10°)33.3 km/h53.8 km/hPartly Cloudy
6:30 AM5 °C-3 °C57 %1024 hPa10 kmNorth (10°)37 km/hMostly Cloudy
7:00 AM5 °C-3.3 °C41 %1026.4 hPa30.6 kmNorth (10°)38.9 km/hPartly Cloudy
7:00 AM5 °C-3 °C57 %1024 hPa10 kmNorth (10°)38.9 km/h57.5 km/hScattered Clouds
7:30 AM5 °C-3 °C57 %1025.1 hPa10 kmNorth (10°)20.4 km/h38.9 km/hPartly Cloudy
8:00 AM4 °C-3 °C61 %1025.1 hPa10 kmNorth (10°)24.1 km/hPartly Cloudy
8:30 AM4 °C-3 °C61 %1026.1 hPa10 kmNorth (350°)20.4 km/hPartly Cloudy
9:00 AM4 °C-4 °C56 %1026.1 hPa10 kmNorth (350°)14.8 km/hPartly Cloudy
9:30 AM5 °C-3 °C57 %1027.1 hPaNorth (350°)20.4 km/hClear
10:00 AM6 °C-3 °C53 %1027.1 hPaNorth (350°)18.5 km/hClear
10:30 AM7 °C-3 °C49 %1027.1 hPaNNW (340°)25.9 km/hClear
11:00 AM7 °C-4 °C46 %1027.1 hPaNorth (350°)27.8 km/h48.1 km/hClear
11:30 AM8 °C-3 °C46 %1027.1 hPa10 kmNorth (360°)33.3 km/h51.8 km/hPartly Cloudy
12:00 PM8 °C-3 °C46 %1028.1 hPa10 kmNorth (360°)35.2 km/hPartly Cloudy
12:30 PM8 °C-3 °C46 %1028.1 hPa10 kmNorth (360°)29.6 km/hPartly Cloudy
1:00 PM8.3 °C-4.4 °C27 %1029.5 hPa30.6 kmNorth29.6 km/hScattered Clouds
1:00 PM9 °C-3 °C43 %1028.1 hPa10 kmNorth (360°)27.8 km/hPartly Cloudy
1:30 PM9 °C-2 °C46 %1028.1 hPa10 kmNorth (360°)29.6 km/hPartly Cloudy
2:30 PM9 °C-3 °C43 %1028.1 hPa10 kmNorth (350°)29.6 km/hPartly Cloudy
3:30 PM10 °C-4 °C37 %1027.1 hPa10 kmNorth (360°)24.1 km/hPartly Cloudy
4:00 PM10 °C-3 °C40 %1027.1 hPa10 kmNorth (360°)24.1 km/hPartly Cloudy
4:30 PM9 °C-4 °C40 %1027.1 hPa10 kmNorth (350°)27.8 km/hPartly Cloudy
5:00 PM9 °C-3 °C43 %1028.1 hPaNorth (350°)24.1 km/hClear
5:30 PM9 °C-3 °C43 %1027.1 hPaNorth (360°)24.1 km/hClear
6:00 PM8 °C-3 °C46 %1028.1 hPaNorth (360°)20.4 km/hClear
6:30 PM8 °C-3 °C46 %1028.1 hPaNorth (360°)25.9 km/hClear
7:00 PM6.7 °C-3.3 °C37 %1029.8 hPa30.6 kmNorth24.1 km/hScattered Clouds
7:00 PM7 °C-2 °C53 %1028.1 hPaNorth (360°)22.2 km/hClear
7:30 PM7 °C-2 °C53 %1028.1 hPaNorth (10°)24.1 km/hClear
8:00 PM6 °C-2 °C57 %1029.1 hPaNorth (10°)18.5 km/hClear
8:30 PM6 °C-2 °C57 %1029.1 hPaNorth (360°)18.5 km/hClear
9:00 PM6 °C-2 °C57 %1029.1 hPaNorth (360°)22.2 km/hClear
9:30 PM6 °C-2 °C57 %1029.1 hPaNorth (360°)18.5 km/hClear
10:00 PM5 °C-2 °C61 %1029.1 hPaNNW (340°)16.7 km/hClear
10:30 PM6 °C-2 °C57 %1029.1 hPaNorth (10°)16.7 km/hClear
11:00 PM5 °C-1 °C65 %1029.1 hPaNNW (340°)7.4 km/hClear
11:30 PM4 °C-2 °C65 %1030.1 hPaNW (320°)9.3 km/hClear
Hourly data recorded from LETO, located 0 kilometers away from Madrid, Spain







STORIES FROM OUR PARTNERS